Temp
8 8 9 10 11 14 14 15 15 15 15 16 16 17 18 18 18 18 19 20 20 20 20 20 21 20 21 22 22 21 17 18 22 20 22 23 22 23 23 21 21 21 21 21 18
8 9 9 10 11 13 14 14 15 15 15 15 16 17 17 18 18 19 19 19 20 20 20 20 20 20 21 21 22 19 16 19 21 21 20 22 22 22 21 19 18 19 21 20 18
9 9 10 11 11 12 13 14 14 14 15 15 16 16 17 18 18 20 20 20 20 20 19 20 20 20 21 21 21 20 17 20 22 22 22 22 22 22 20 18 19 19 20 19 19
10 10 11 11 12 13 13 14 14 14 15 15 16 16 17 17 19 19 20 20 20 19 19 20 20 20 20 20 22 21 21 22 22 23 23 20 22 21 22 22 23 21 21 20 19
11 11 12 12 12 13 14 14 14 15 15 16 16 16 17 17 19 19 19 19 19 19 19 19 20 20 20 20 21 20 21 22 22 22 22 22 21 21 20 22 22 21 20 19 19
12 12 12 13 13 14 14 14 15 15 15 16 16 17 17 17 19 19 19 19 19 19 19 19 20 20 20 21 20 22 21 21 21 21 21 20 20 20 21 20 22 21 20 20 19
12 12 13 13 13 14 14 15 15 15 16 16 16 17 17 19 19 19 19 19 19 19 19 19 19 20 20 21 22 21 20 19 19 20 19 20 18 17 21 19 20 19 20 19 19
13 13 13 13 14 14 15 15 15 16 16 16 16 16 18 19 18 19 19 18 18 18 18 18 19 19 20 21 21 20 18 17 17 18 20 20 15 17 20 18 18 18 19 19 19
14 14 14 14 15 15 15 16 16 16 16 16 16 15 17 18 18 19 18 18 18 18 18 18 18 19 20 16 15 16 15 15 17 17 18 17 16 17 20 18 18 18 18 18 18
15 15 15 15 16 16 16 17 17 16 16 16 16 15 17 18 19 18 18 18 18 18 18 18 18 15 13 13 14 15 15 15 17 18 16 15 16 16 18 16 17 18 18 18 18
15 15 15 15 16 16 16 17 17 16 16 18 17 18 19 18 18 18 18 17 18 18 15 17 14 13 14 14 16 16 16 17 18 19 16 16 17 17 17 15 15 16 16 18 19
15 15 16 16 16 16 16 15 15 15 14 18 17 17 18 18 18 18 17 17 17 14 15 15 13 16 15 15 15 16 16 15 16 18 17 16 16 17 15 15 16 17 16 18 18
15 16 16 16 16 16 16 15 15 15 14 16 17 18 18 18 18 18 18 17 16 15 14 13 15 17 16 16 16 16 16 16 17 19 17 17 16 16 16 17 18 18 18 18 19
15 16 16 16 16 16 16 15 15 15 11 15 17 18 18 18 18 18 18 18 17 15 14 14 17 17 16 16 17 16 17 18 18 17 15 16 17 15 16 16 15 17 18 17 18
15 15 16 17 16 16 16 16 16 15 15 18 17 17 18 18 18 17 18 18 16 16 17 15 18 15 16 18 17 17 17 17 18 16 16 16 14 17 16 16 17 17 20 21 19
14 15 15 16 16 16 16 16 16 13 15 18 17 17 16 17 17 17 18 17 17 16 15 15 18 18 17 18 18 18 18 14 12 12 13 16 15 19 17 18 20 21 22 22 21
15 15 15 15 15 15 16 16 13 13 18 18 18 16 16 16 16 15 15 15 14 14 13 14 16 17 19 18 17 17 14 13 13 12 14 15 14 19 17 17 17 19 23 23 22
15 15 15 14 14 15 15 13 15 16 17 17 17 17 16 16 15 16 14 13 13 14 12 14 16 15 16 18 17 14 15 13 13 13 17 14 14 18 16 21 22 21 24 23 22
15 15 14 13 14 15 15 11 13 15 16 15 15 16 16 17 17 16 13 13 14 13 13 13 14 16 17 19 18 16 14 16 15 14 12 13 14 17 16 16 16 18 21 23 23
14 13 13 14 14 14 11 11 13 15 14 15 14 15 14 15 14 14 15 16 16 14 16 14 14 17 18 17 17 16 15 14 12 14 13 15 14 16 17 20 19 15 16 23 23
13 13 12 13 13 14 9 9 13 14 13 13 13 13 13 13 14 14 14 15 12 13 14 14 13 15 16 15 15 14 15 14 13 12 15 16 17 14 19 18 17 16 19 22 22
12 9 12 13 12 8 9 12 13 12 13 13 13 12 12 11 11 12 13 14 11 10 10 11 11 12 15 17 17 17 17 17 15 15 10 16 18 19 16 16 16 19 21 21 20
11 11 12 12 7 6 8 10 11 10 11 12 11 12 11 11 10 12 11 12 10 10 9 10 10 10 12 14 13 12 14 14 15 16 16 15 17 18 18 18 20 17 20 22 21
10 5 11 11 8 6 5 7 8 10 10 9 10 9 8 8 9 9 10 10 9 10 11 9 8 10 10 9 6 7 6 9 8 13 15 16 17 18 17 15 16 19 22 22 21
8 5 5 3 4 4 5 6 7 7 8 8 8 7 7 6 7 8 8 8 9 9 7 8 7 8 7 8 9 8 8 6 6 7 7 9 13 18 19 18 19 19 20 19 18
6 5 5 4 4 4 4 6 7 7 6 6 6 6 6 5 6 5 6 6 6 8 7 6 6 8 7 8 8 8 8 8 7 8 9 12 12 16 18 18 18 19 18 20 20
4 3 4 4 4 3 3 5 5 5 5 7 5 5 5 6 6 7 7 7 6 6 6 6 6 4 6 8 8 7 9 8 10 11 10 8 9 10 8 10 15 17 17 18 21
Height
1523 1523 1524 1524 1525 1526 1528 1529 1530 1532 1533 1534 1535 1535 1535 1535 1535 1535 1535 1536 1535 1535 1536 1536 1537 1538 1537 1537 1537 1539 1549 1555 1544 1548 1541 1538 1540 1541 1542 1544 1545 1545 1545 1546 1551
1525 1525 1525 1526 1526 1528 1529 1530 1531 1533 1534 1535 1535 1535 1534 1535 1535 1535 1536 1534 1535 1535 1537 1537 1537 1537 1537 1537 1538 1539 1551 1545 1537 1536 1537 1535 1536 1537 1541 1542 1543 1542 1543 1545 1547
1526 1526 1527 1528 1529 1530 1531 1532 1533 1534 1534 1535 1536 1535 1535 1535 1536 1533 1534 1534 1534 1535 1536 1537 1537 1537 1537 1536 1537 1538 1544 1535 1535 1534 1532 1535 1536 1536 1536 1541 1535 1537 1540 1543 1545
1529 1529 1529 1530 1531 1531 1532 1533 1534 1535 1535 1536 1535 1535 1535 1535 1538 1532 1532 1532 1533 1535 1535 1536 1537 1538 1537 1537 1535 1537 1533 1533 1533 1533 1533 1535 1534 1533 1532 1529 1532 1535 1537 1538 1540
1532 1532 1532 1532 1532 1532 1533 1534 1535 1535 1535 1536 1535 1535 1535 1535 1533 1532 1532 1532 1533 1534 1535 1535 1536 1537 1537 1535 1534 1534 1533 1532 1532 1533 1533 1533 1531 1531 1528 1529 1531 1533 1534 1535 1537
1534 1534 1534 1534 1534 1534 1534 1535 1535 1536 1535 1535 1535 1534 1535 1535 1531 1531 1531 1531 1532 1533 1534 1535 1536 1536 1535 1533 1533 1531 1531 1530 1530 1531 1531 1531 1530 1530 1525 1526 1527 1528 1529 1531 1531
1537 1536 1536 1536 1535 1535 1535 1535 1535 1536 1536 1535 1535 1534 1533 1531 1530 1530 1530 1530 1531 1532 1533 1534 1534 1535 1535 1532 1531 1531 1533 1531 1529 1529 1529 1529 1530 1524 1522 1522 1523 1524 1525 1526 1527
1539 1538 1537 1537 1536 1536 1536 1535 1535 1536 1536 1535 1535 1534 1530 1529 1528 1528 1529 1530 1530 1531 1532 1533 1533 1533 1533 1532 1531 1533 1534 1543 1526 1525 1526 1528 1532 1513 1517 1518 1519 1520 1520 1521 1521
1539 1539 1538 1538 1537 1537 1536 1535 1535 1535 1535 1535 1535 1533 1528 1527 1526 1527 1527 1529 1530 1531 1531 1532 1532 1532 1532 1536 1543 1539 1548 1543 1532 1520 1522 1525 1524 1507 1510 1513 1514 1514 1514 1515 1516
1539 1538 1538 1538 1537 1536 1536 1535 1535 1535 1535 1534 1534 1536 1527 1525 1525 1526 1527 1528 1529 1530 1531 1532 1531 1532 1533 1540 1554 1544 1544 1536 1531 1518 1520 1523 1516 1508 1507 1509 1505 1504 1505 1507 1508
1539 1538 1538 1537 1536 1536 1535 1535 1537 1535 1532 1528 1528 1526 1526 1526 1526 1526 1527 1528 1529 1529 1531 1529 1534 1535 1527 1524 1524 1527 1530 1527 1517 1511 1518 1517 1510 1502 1501 1503 1502 1498 1497 1497 1496
1539 1538 1537 1537 1536 1535 1534 1534 1535 1536 1528 1522 1521 1522 1524 1526 1525 1525 1527 1529 1528 1530 1528 1531 1534 1514 1520 1522 1524 1525 1529 1527 1516 1507 1511 1509 1503 1493 1496 1493 1490 1486 1486 1485 1489
1539 1538 1537 1536 1535 1535 1535 1535 1535 1534 1532 1519 1518 1517 1519 1525 1523 1522 1525 1525 1526 1529 1528 1532 1517 1509 1516 1518 1522 1520 1521 1520 1516 1505 1504 1505 1497 1492 1482 1481 1480 1477 1475 1477 1476
1538 1537 1536 1535 1537 1535 1534 1534 1533 1532 1538 1524 1519 1518 1518 1520 1519 1516 1519 1523 1525 1525 1525 1524 1511 1511 1515 1514 1513 1517 1505 1508 1509 1514 1525 1504 1496 1487 1482 1475 1470 1467 1465 1462 1462
1537 1536 1534 1533 1533 1534 1535 1533 1532 1531 1553 1521 1519 1520 1520 1523 1520 1516 1517 1519 1519 1519 1521 1519 1508 1511 1510 1502 1503 1504 1500 1503 1502 1509 1511 1507 1519 1477 1472 1473 1463 1456 1451 1447 1448
1534 1533 1532 1532 1532 1533 1532 1531 1532 1542 1547 1520 1518 1519 1520 1519 1518 1517 1518 1519 1517 1515 1511 1508 1503 1504 1501 1496 1496 1496 1500 1507 1511 1515 1524 1497 1507 1454 1468 1458 1450 1442 1441 1437 1439
1532 1531 1532 1532 1533 1531 1530 1531 1543 1551 1517 1521 1518 1518 1518 1517 1514 1513 1515 1517 1522 1525 1521 1506 1496 1491 1492 1498 1495 1495 1508 1530 1528 1529 1505 1485 1500 1451 1447 1444 1442 1437 1431 1427 1428
1529 1529 1530 1532 1532 1532 1532 1533 1543 1527 1522 1517 1518 1515 1518 1511 1511 1509 1514 1519 1514 1516 1520 1516 1502 1488 1481 1481 1487 1494 1497 1515 1522 1518 1484 1485 1484 1443 1435 1430 1428 1428 1426 1425 1425
1527 1528 1530 1532 1532 1533 1535 1548 1539 1531 1524 1525 1519 1517 1514 1509 1510 1508 1513 1512 1504 1504 1515 1509 1496 1474 1472 1470 1476 1484 1495 1480 1492 1492 1502 1480 1458 1435 1430 1428 1423 1421 1422 1420 1419
1529 1530 1532 1533 1534 1534 1537 1543 1535 1529 1529 1525 1529 1521 1523 1519 1520 1517 1509 1500 1499 1495 1496 1496 1491 1471 1470 1470 1468 1472 1474 1492 1498 1499 1499 1470 1470 1448 1431 1422 1418 1418 1415 1412 1413
1530 1533 1537 1536 1537 1537 1545 1543 1535 1533 1533 1532 1531 1528 1523 1521 1517 1517 1510 1503 1505 1501 1497 1494 1492 1465 1469 1474 1474 1476 1472 1475 1477 1480 1472 1465 1444 1426 1420 1415 1414 1410 1408 1408 1408
1532 1536 1538 1538 1539 1542 1545 1541 1539 1536 1533 1532 1529 1525 1525 1524 1518 1516 1510 1506 1509 1508 1506 1501 1495 1482 1467 1458 1454 1452 1452 1452 1462 1459 1470 1448 1420 1409 1413 1413 1411 1406 1400 1401 1405
1537 1539 1540 1539 1546 1548 1545 1542 1541 1540 1538 1535 1532 1528 1527 1525 1524 1511 1510 1507 1509 1510 1510 1505 1493 1487 1468 1461 1460 1463 1458 1457 1442 1439 1439 1440 1414 1409 1406 1407 1406 1405 1401 1399 1401
1542 1545 1542 1541 1547 1550 1553 1547 1544 1540 1538 1537 1533 1528 1530 1527 1524 1517 1514 1510 1512 1511 1507 1507 1499 1489 1484 1486 1498 1487 1482 1478 1479 1452 1432 1424 1411 1405 1408 1409 1403 1400 1397 1395 1395
1546 1552 1552 1552 1549 1552 1552 1548 1545 1543 1539 1536 1531 1533 1535 1530 1523 1516 1514 1510 1508 1505 1505 1505 1499 1496 1490 1485 1485 1480 1478 1478 1479 1473 1471 1443 1431 1401 1398 1398 1394 1393 1392 1392 1390
1550 1553 1553 1552 1552 1551 1549 1547 1544 1543 1543 1539 1536 1532 1531 1530 1526 1517 1515 1514 1509 1502 1500 1497 1492 1483 1478 1472 1468 1463 1466 1460 1458 1448 1447 1433 1420 1411 1396 1391 1387 1386 1388 1386 1383
1552 1553 1553 1552 1550 1552 1551 1547 1543 1542 1536 1532 1532 1529 1526 1521 1519 1514 1510 1505 1502 1499 1493 1491 1486 1483 1473 1463 1459 1455 1444 1441 1431 1423 1427 1435 1427 1420 1411 1401 1388 1377 1375 1371 1372
Wind_Speed
2 3 5 5 7 11 12 11 11 11 10 9 8 8 8 8 9 7 5 5 1 3 6 6 7 8 5 4 4 1 4 2 4 6 4 13 5 6 7 14 8 13 9 9 28
8 8 7 7 9 11 12 11 11 11 10 9 8 7 7 8 7 7 5 2 2 5 6 7 8 6 3 2 3 3 4 7 4 4 6 14 11 14 8 10 4 10 14 22 31
11 11 10 9 9 10 10 10 10 10 9 8 6 5 5 6 4 4 3 2 4 6 7 7 6 4 3 4 4 4 5 5 4 1 10 12 8 12 13 5 14 23 25 32 32
12 11 10 9 9 9 9 10 10 8 8 6 3 3 5 5 3 3 1 4 5 8 8 9 6 3 2 3 6 3 7 5 4 3 5 7 8 7 21 16 19 21 24 30 35
11 10 10 9 8 8 9 9 8 8 6 4 2 2 4 4 5 3 4 4 7 8 10 6 5 3 3 5 4 4 4 6 6 7 7 8 14 10 21 18 15 22 28 31 33
9 8 8 7 6 6 7 7 7 7 5 3 1 2 4 4 3 3 4 6 9 10 11 7 4 3 7 5 7 5 9 6 8 9 7 5 7 9 17 18 18 29 31 33 35
6 6 5 4 4 3 4 6 6 6 4 3 3 4 8 8 5 3 3 7 9 11 10 8 8 6 3 3 5 4 3 2 7 8 5 5 7 11 16 19 23 34 34 34 35
5 4 3 3 1 1 3 5 6 6 5 4 4 6 6 6 8 9 5 7 5 11 10 8 7 9 4 3 1 4 2 1 5 10 6 10 11 11 23 28 30 33 35 36 36
5 6 5 5 4 3 3 4 6 6 6 7 6 5 7 5 10 7 9 7 4 6 8 7 7 5 3 4 4 3 4 7 7 18 4 7 9 8 21 33 34 38 39 39 38
4 3 3 3 4 4 4 2 4 4 7 10 10 8 8 5 7 6 9 9 7 6 4 6 4 2 2 4 7 7 6 5 6 6 6 8 16 9 10 30 37 41 44 44 43
5 4 3 3 4 4 2 1 2 3 7 10 3 6 4 4 5 6 8 13 11 5 5 6 3 9 13 10 3 4 4 5 4 6 9 15 20 19 22 21 24 33 40 46 48
6 5 4 5 5 3 3 3 4 6 10 13 21 24 15 8 5 8 10 9 6 6 4 0 9 15 6 7 8 8 8 9 8 8 10 9 20 18 8 15 31 40 39 47 47
9 7 4 2 3 3 3 5 7 8 5 8 6 10 20 14 7 9 17 8 6 5 7 6 7 5 9 7 8 11 14 6 9 3 4 4 11 8 9 25 36 40 42 46 52
8 7 6 3 2 2 3 6 7 8 4 5 1 2 9 8 6 13 20 7 3 9 6 7 17 15 6 8 14 16 8 14 10 4 7 6 14 8 7 15 10 32 37 48 51
4 5 5 3 1 1 3 4 5 3 4 1 0 4 4 6 7 1 16 17 5 5 2 8 4 8 15 18 8 9 8 9 6 5 1 5 4 3 4 7 15 16 40 47 48
8 5 3 1 1 2 3 3 3 5 4 1 2 1 2 6 3 2 4 10 2 4 6 11 12 4 5 6 9 4 3 6 4 3 5 10 8 24 9 15 14 19 32 37 38
9 9 5 4 1 2 2 1 5 3 4 1 0 3 4 4 4 7 6 5 5 2 5 5 10 7 9 6 2 4 6 3 4 2 11 11 8 22 8 8 11 15 33 25 29
7 6 5 3 4 4 2 4 3 3 4 3 5 3 7 5 6 2 4 4 6 3 3 4 12 9 9 20 13 9 9 7 8 7 12 6 10 13 12 27 34 33 29 18 25
6 1 3 3 5 2 2 3 5 2 5 8 7 3 3 2 3 2 7 7 8 15 9 5 9 6 4 14 14 9 9 9 7 1 2 6 9 11 8 10 11 20 30 34 29
8 13 11 4 4 2 4 3 4 6 10 4 2 5 4 7 9 7 3 2 4 8 15 4 17 12 11 3 4 10 6 2 0 7 11 10 6 12 5 15 14 10 19 32 33
6 6 8 2 0 2 2 5 4 22 19 6 7 9 10 7 8 6 6 8 10 8 9 4 7 14 3 6 8 2 9 5 5 7 13 16 12 9 17 16 12 12 30 36 37
8 4 7 7 3 3 1 4 10 11 18 6 7 4 3 10 7 6 7 6 16 8 6 4 5 9 14 12 13 19 17 21 13 16 5 15 23 2 7 8 10 21 32 33 34
6 5 7 7 3 4 7 7 9 7 7 5 5 4 9 5 7 3 7 14 16 12 12 9 4 9 14 9 5 5 8 14 11 15 21 19 23 6 11 14 18 16 19 20 28
5 4 5 8 9 4 4 5 6 18 4 10 6 5 10 4 6 10 11 8 23 20 16 4 5 10 10 5 7 10 23 22 12 12 19 22 31 26 12 8 11 23 30 33 33
6 3 4 4 4 6 2 3 4 4 9 12 4 6 6 5 14 8 17 14 7 13 3 3 9 13 18 23 22 21 22 24 23 17 11 26 30 27 21 19 24 33 31 26 29
4 4 3 5 5 5 4 2 3 3 5 6 4 11 11 9 12 16 13 11 9 7 5 6 15 14 18 21 19 20 17 21 24 23 23 23 29 22 33 27 22 27 27 35 34
6 2 2 5 2 2 3 0 5 18 12 12 14 16 13 14 17 24 25 26 18 17 19 14 12 6 19 20 19 15 15 18 15 15 12 18 14 21 20 26 27 27 33 38 44
Wind_Direction
81 137 164 176 160 147 146 147 144 142 140 141 147 154 160 168 168 175 189 182 167 101 130 119 138 153 139 130 131 136 70 199 197 150 229 180 154 152 165 152 179 193 192 207 169
81 90 107 124 128 136 140 141 139 140 138 140 147 155 164 172 184 211 198 202 258 167 164 147 128 142 140 149 150 118 125 213 198 201 205 190 176 150 157 152 157 187 200 170 174
88 92 97 104 114 123 130 137 138 138 138 143 148 164 173 183 216 222 196 260 214 188 196 165 151 159 190 171 190 180 191 214 219 143 183 185 193 174 160 230 195 172 165 169 180
92 96 101 108 117 125 133 139 139 139 140 146 156 189 187 197 195 160 316 219 199 195 178 170 173 192 188 200 207 185 233 202 201 206 181 189 208 206 189 215 217 206 193 184 188
91 97 101 110 118 126 139 147 148 149 147 154 190 220 202 234 245 222 313 200 191 193 176 167 211 209 213 220 225 196 233 222 210 212 224 225 210 206 218 222 210 205 196 195 194
92 96 102 107 116 131 149 161 165 164 162 170 236 266 219 252 218 254 279 207 196 189 192 198 194 274 280 247 181 211 224 204 208 230 234 208 235 208 225 216 213 200 201 202 201
85 92 94 101 111 138 170 185 187 186 192 213 278 295 244 235 246 272 288 216 212 204 202 210 239 257 313 272 227 186 143 265 228 217 240 184 270 229 225 196 203 195 202 206 209
47 58 59 50 58 164 206 212 211 209 216 251 290 297 257 232 241 260 259 223 207 204 217 224 240 253 250 284 355 157 77 221 264 182 229 162 260 247 214 190 194 200 206 209 213
52 35 22 8 357 340 290 247 233 227 234 251 282 293 266 232 238 247 218 200 169 201 220 223 222 220 197 100 7 334 227 216 301 198 148 171 257 256 209 200 207 211 213 215 218
42 35 29 15 12 4 338 321 289 266 255 261 255 286 250 243 238 236 213 203 189 198 216 205 211 153 80 119 215 208 222 238 223 218 195 211 250 257 223 206 217 221 223 223 225
36 29 18 15 14 19 28 311 309 262 241 226 242 236 342 235 227 253 218 202 204 215 192 203 146 215 201 204 167 196 216 231 246 218 183 222 236 246 241 216 231 230 228 228 231
30 16 11 10 6 21 69 56 23 326 299 262 250 248 244 286 271 243 198 192 201 217 190 219 231 232 199 216 225 241 260 266 270 252 182 238 243 243 211 223 225 232 229 232 234
29 22 11 9 43 59 52 40 353 336 282 295 256 247 228 221 242 244 199 207 208 220 215 191 237 205 191 224 214 235 234 240 235 286 251 313 268 250 243 232 238 242 241 238 235
26 30 25 20 122 50 94 4 355 335 45 285 278 304 187 197 268 243 215 206 233 230 210 234 245 258 201 231 203 241 211 231 245 182 248 159 279 228 239 247 220 235 239 239 237
341 357 14 44 277 327 329 335 328 346 353 202 216 159 185 193 333 340 207 209 217 252 110 249 271 230 244 234 182 237 187 207 217 217 5 207 272 203 249 267 265 241 243 246 239
292 291 305 307 49 37 339 339 315 41 268 116 118 169 96 235 259 288 183 214 263 250 227 237 259 280 237 239 212 139 105 33 43 95 256 211 182 272 218 224 245 258 265 261 245
282 276 280 288 221 305 331 286 38 143 317 35 304 180 201 236 238 186 189 183 204 260 268 307 242 213 202 235 347 157 109 271 281 190 243 168 202 241 251 239 221 248 269 267 240
293 265 250 298 298 297 308 42 188 250 262 52 350 249 196 190 244 229 154 231 244 217 299 263 286 176 209 207 198 204 178 186 211 221 257 175 227 244 219 243 255 246 249 262 230
6 94 125 102 50 321 360 50 223 262 350 351 332 308 264 120 294 326 210 211 219 189 195 224 255 258 196 215 182 208 214 222 283 160 320 218 274 281 256 261 262 246 243 246 236
47 79 61 93 61 36 79 241 279 27 360 9 309 256 306 340 333 359 285 234 266 195 236 288 289 242 263 209 247 201 168 186 175 249 251 259 264 243 308 241 246 254 235 236 232
64 78 29 62 165 59 146 242 326 345 355 350 321 295 296 309 259 263 250 327 356 346 309 278 228 269 206 197 211 197 224 218 179 191 242 258 254 197 228 232 235 235 240 239 230
56 66 23 21 24 31 41 336 343 336 4 339 338 336 12 322 285 293 271 243 18 15 343 304 289 279 265 245 233 232 229 221 231 241 243 246 257 177 221 263 255 252 254 254 236
42 32 32 16 75 2 345 329 323 20 334 319 297 341 331 315 320 296 347 347 4 10 357 349 296 308 298 301 6 344 337 309 255 246 243 246 260 207 250 252 254 263 272 260 238
30 22 16 56 76 71 0 285 346 327 314 347 284 28 357 326 322 310 325 350 346 317 308 295 273 286 285 338 336 306 316 316 349 280 269 247 263 265 271 267 267 263 270 271 248
45 59 17 327 352 341 258 275 289 325 354 346 325 8 329 290 305 264 324 313 288 295 163 243 265 262 262 276 282 280 270 279 286 293 288 291 292 273 261 252 246 258 270 275 254
60 28 0 301 306 330 326 282 329 326 350 279 307 319 316 278 273 301 310 308 275 265 227 204 271 270 273 274 273 277 278 256 258 259 274 290 296 308 285 285 261 253 249 254 253
39 23 233 277 304 75 245 317 293 319 296 246 323 310 293 286 307 296 285 282 267 270 268 257 262 263 273 281 289 280 253 244 248 248 249 263 323 344 355 342 297 255 248 240 239